TAP68 LTFM-LPPT

Flight info

Callsign TAP68
Flight time N/A
Altitude 32000
Route BARPE1D/35L BARPE UG12 GOLDO DCT SUTIS DCT TALAS DCT ORRIH DCT DIRES DCT PIKEL/N0452F330 DCT BAR DCT EPIKU/N0450F340 DCT GINOX DCT KIFMI DCT ELVOP DCT MUREN/N0450F330 M601 BCN N975 SALAS/N0452F350 N975 CCS DCT UPULO
Aircraft A321/M-SDE3FGHIRWY/LB1

Departure

Time 2026-05-06 15:10
Airport İstanbul Airport (LTFM)

Arrival

Time N/A
Airport Lisbon Humberto Delgado Airport (LPPT)
Time Latitude Longitude Altitude Speed Heading
2026-05-06 14:35 41.26306 28.73602 330 ft 0 kts 70°
2026-05-06 14:53 41.26303 28.73589 334 ft 4 kts 71°
2026-05-06 14:54 41.26295 28.73554 329 ft 4 kts 79°
2026-05-06 14:54 41.26293 28.73519 331 ft 4 kts 97°
2026-05-06 14:54 41.26301 28.73491 330 ft 4 kts 152°
2026-05-06 14:54 41.26305 28.73488 330 ft 0 kts 160°
2026-05-06 14:59 41.26291 28.73494 331 ft 5 kts 162°
2026-05-06 15:00 41.26240 28.73487 334 ft 9 kts 212°
2026-05-06 15:00 41.26222 28.73420 330 ft 7 kts 266°
2026-05-06 15:00 41.26221 28.73364 333 ft 5 kts 269°
2026-05-06 15:00 41.26219 28.73303 331 ft 9 kts 269°
2026-05-06 15:01 41.26218 28.73206 333 ft 12 kts 269°
2026-05-06 15:01 41.26216 28.73077 333 ft 16 kts 270°
2026-05-06 15:01 41.26215 28.72967 334 ft 11 kts 269°
2026-05-06 15:01 41.26213 28.72856 334 ft 13 kts 269°
2026-05-06 15:02 41.26227 28.72780 330 ft 9 kts 322°
2026-05-06 15:02 41.26279 28.72775 334 ft 0 kts 357°
2026-05-06 15:02 41.26280 28.72775 334 ft 0 kts 357°
2026-05-06 15:04 41.26331 28.72775 331 ft 15 kts
2026-05-06 15:04 41.26392 28.72914 334 ft 13 kts 89°
2026-05-06 15:04 41.26389 28.72972 334 ft 7 kts 116°
2026-05-06 15:05 41.26302 28.73005 330 ft 16 kts 178°
2026-05-06 15:05 41.26222 28.72966 334 ft 1 kts 247°
2026-05-06 15:05 41.26217 28.72941 334 ft 8 kts 261°
2026-05-06 15:05 41.26212 28.72795 334 ft 23 kts 269°
2026-05-06 15:06 41.26211 28.72631 334 ft 11 kts 269°
2026-05-06 15:06 41.26258 28.72526 332 ft 6 kts
2026-05-06 15:06 41.26268 28.72525 334 ft 0 kts 355°
2026-05-06 15:06 41.26270 28.72525 334 ft 4 kts 355°
2026-05-06 15:07 41.26330 28.72522 331 ft 0 kts 359°
2026-05-06 15:09 41.26347 28.72522 331 ft 15 kts 359°
2026-05-06 15:10 41.26699 28.72515 330 ft 84 kts 359°
2026-05-06 15:10 41.27472 28.72494 333 ft 136 kts 359°
2026-05-06 15:10 41.28568 28.72473 357 ft 175 kts
2026-05-06 15:10 41.29756 28.72433 1029 ft 165 kts
2026-05-06 15:11 41.30905 28.72426 1629 ft 165 kts
2026-05-06 15:11 41.32069 28.72443 1972 ft 173 kts
2026-05-06 15:11 41.33339 28.72465 2115 ft 190 kts
2026-05-06 15:11 41.34722 28.72489 2242 ft 208 kts
2026-05-06 15:12 41.36224 28.72505 2379 ft 225 kts 358°
2026-05-06 15:12 41.37773 28.71904 2493 ft 246 kts 322°
2026-05-06 15:12 41.38761 28.70038 2900 ft 255 kts 285°
2026-05-06 15:12 41.38922 28.67709 3564 ft 258 kts 269°
2026-05-06 15:13 41.38755 28.65319 4266 ft 260 kts 265°
2026-05-06 15:13 41.38514 28.62928 4965 ft 261 kts 265°
2026-05-06 15:13 41.38244 28.60528 5629 ft 263 kts 264°
2026-05-06 15:13 41.37948 28.58111 6267 ft 266 kts 264°
2026-05-06 15:14 41.37638 28.55682 6888 ft 268 kts 264°
2026-05-06 15:14 41.37312 28.53218 7460 ft 272 kts 264°
2026-05-06 15:14 41.36980 28.50725 8032 ft 275 kts 264°
2026-05-06 15:14 41.36643 28.48199 8597 ft 279 kts 264°
2026-05-06 15:15 41.36299 28.45639 9158 ft 283 kts 264°
2026-05-06 15:15 41.35945 28.43046 9750 ft 286 kts 264°
2026-05-06 15:15 41.35584 28.40418 10174 ft 296 kts 264°
2026-05-06 15:15 41.35210 28.37632 10281 ft 315 kts 264°
2026-05-06 15:16 41.34817 28.34670 10416 ft 332 kts 264°
2026-05-06 15:16 41.34415 28.31576 10554 ft 348 kts 264°
2026-05-06 15:16 41.34009 28.28366 10956 ft 354 kts 264°
2026-05-06 15:16 41.33600 28.25124 11472 ft 357 kts 264°
2026-05-06 15:17 41.33193 28.21853 11994 ft 360 kts 264°
2026-05-06 15:17 41.32790 28.18555 12528 ft 363 kts 264°
2026-05-06 15:17 41.32391 28.15230 13061 ft 365 kts 264°
2026-05-06 15:17 41.31966 28.11884 13586 ft 369 kts 259°
2026-05-06 15:18 41.31287 28.08562 14078 ft 373 kts 257°
2026-05-06 15:18 41.30551 28.05239 14539 ft 376 kts 256°
2026-05-06 15:18 41.29799 28.01947 15007 ft 378 kts 256°
2026-05-06 15:18 41.29027 27.98595 15468 ft 381 kts 256°
2026-05-06 15:19 41.28249 27.95220 15932 ft 383 kts 256°
2026-05-06 15:19 41.27470 27.91828 16393 ft 385 kts 256°
2026-05-06 15:19 41.26689 27.88408 16839 ft 388 kts 256°
2026-05-06 15:19 41.25907 27.84967 17272 ft 390 kts 256°
2026-05-06 15:20 41.25125 27.81518 17712 ft 392 kts 256°
2026-05-06 15:20 41.24336 27.78033 18142 ft 395 kts 256°
2026-05-06 15:20 41.23539 27.74530 18542 ft 397 kts 256°
2026-05-06 15:20 41.22734 27.71012 18914 ft 399 kts 256°
2026-05-06 15:21 41.21924 27.67480 19278 ft 401 kts 257°
2026-05-06 15:21 41.21111 27.63929 19636 ft 403 kts 257°
2026-05-06 15:21 41.20295 27.60366 20006 ft 405 kts 257°
2026-05-06 15:21 41.19482 27.56832 20354 ft 407 kts 257°
2026-05-06 15:22 41.18651 27.53236 20703 ft 408 kts 257°
2026-05-06 15:22 41.17816 27.49627 21063 ft 410 kts 257°
2026-05-06 15:22 41.16974 27.46005 21400 ft 412 kts 257°
2026-05-06 15:22 41.16129 27.42362 21754 ft 414 kts 257°
2026-05-06 15:23 41.15280 27.38700 22117 ft 415 kts 257°
2026-05-06 15:23 41.14428 27.35030 22464 ft 417 kts 257°
2026-05-06 15:23 41.13573 27.31347 22798 ft 419 kts 258°
2026-05-06 15:23 41.12713 27.27640 23144 ft 421 kts 258°
2026-05-06 15:24 41.11850 27.23928 23474 ft 423 kts 258°
2026-05-06 15:24 41.10980 27.20193 23765 ft 425 kts 258°
2026-05-06 15:24 41.10103 27.16441 24020 ft 426 kts 258°
2026-05-06 15:24 41.09232 27.12737 24319 ft 427 kts 257°
2026-05-06 15:25 41.08343 27.08972 24622 ft 428 kts 257°
2026-05-06 15:25 41.07456 27.05214 24902 ft 429 kts 258°
2026-05-06 15:25 41.06567 27.01438 25167 ft 430 kts 258°
2026-05-06 15:25 41.05674 26.97648 25423 ft 431 kts 258°
2026-05-06 15:26 41.04777 26.93850 25687 ft 433 kts 258°
2026-05-06 15:26 41.03875 26.90039 25942 ft 434 kts 258°
2026-05-06 15:26 41.02973 26.86218 26182 ft 436 kts 258°
2026-05-06 15:26 41.02064 26.82384 26441 ft 437 kts 258°
2026-05-06 15:27 41.01160 26.78586 26680 ft 439 kts 258°
2026-05-06 15:27 41.00241 26.74737 26932 ft 440 kts 257°
2026-05-06 15:27 40.99313 26.70865 27196 ft 441 kts 258°
2026-05-06 15:27 40.98385 26.66992 27418 ft 442 kts 258°
2026-05-06 15:28 40.97455 26.63112 27655 ft 443 kts 258°
2026-05-06 15:28 40.96633 26.59685 27855 ft 445 kts 258°
2026-05-06 15:28 40.95674 26.55730 28061 ft 446 kts 257°
2026-05-06 15:28 40.94679 26.51829 28275 ft 449 kts 256°
2026-05-06 15:29 40.93589 26.47947 28467 ft 452 kts 254°
2026-05-06 15:29 40.92361 26.44091 28667 ft 457 kts 251°
2026-05-06 15:29 40.90966 26.40306 28853 ft 461 kts 248°
2026-05-06 15:29 40.89382 26.36650 29010 ft 467 kts 244°
2026-05-06 15:30 40.87537 26.33084 29156 ft 473 kts 239°
2026-05-06 15:30 40.85442 26.29707 29316 ft 479 kts 233°
2026-05-06 15:30 40.83049 26.26592 29430 ft 487 kts 226°
2026-05-06 15:31 40.77573 26.21936 29413 ft 506 kts 209°